Information on these data can be found in provided Readme document
Contact Info: Zachary Fasnacht (zachary.fasnacht@ssaihq.com); Nickolay Krotkov (nickolay.a.krotkov@nasa.gov); Lok Lamsal (lok.lamsal@nasa.gov)

FillValue: -999.
ScaleFactor: 1e15
Units: molecules/cm^2

Date(yyyy-mm-dd),City,Country,LonCenter,LatCenter,BoundingCoordinates,Median,Q1,Q3,Mean,Baseline_Median,Baseline_Q1,Baseline_Q3,Baseline_Mean,NumGoodSamples,NumTotalSamples
2015-01-01,Accra,Ghana,-0.2001,5.5501,[-0.7001 5.0501 0.2999 6.0501],1.26,0.606,1.847,1.324,1.183,0.62,1.804,1.306,203.0,521.0
2015-01-02,Accra,Ghana,-0.2001,5.5501,[-0.7001 5.0501 0.2999 6.0501],1.26,0.664,1.752,1.321,1.176,0.632,1.742,1.285,223.0,497.0
2015-01-03,Accra,Ghana,-0.2001,5.5501,[-0.7001 5.0501 0.2999 6.0501],1.404,0.831,1.946,1.421,1.19,0.67,1.796,1.306,212.0,525.0
2015-01-04,Accra,Ghana,-0.2001,5.5501,[-0.7001 5.0501 0.2999 6.0501],1.275,0.811,1.752,1.366,1.154,0.662,1.776,1.309,226.0,489.0
2015-01-05,Accra,Ghana,-0.2001,5.5501,[-0.7001 5.0501 0.2999 6.0501],1.301,0.884,1.833,1.408,1.193,0.692,1.868,1.353,212.0,524.0
2015-01-06,Accra,Ghana,-0.2001,5.5501,[-0.7001 5.0501 0.2999 6.0501],1.297,0.884,1.784,1.365,1.146,0.641,1.849,1.315,192.0,500.0
2015-01-07,Accra,Ghana,-0.2001,5.5501,[-0.7001 5.0501 0.2999 6.0501],1.346,0.815,1.962,1.431,1.187,0.651,1.896,1.355,209.0,513.0
2015-01-08,Accra,Ghana,-0.2001,5.5501,[-0.7001 5.0501 0.2999 6.0501],1.289,0.862,1.922,1.406,1.148,0.65,1.856,1.311,203.0,509.0
2015-01-09,Accra,Ghana,-0.2001,5.5501,[-0.7001 5.0501 0.2999 6.0501],1.301,0.884,1.922,1.435,1.124,0.659,1.852,1.312,229.0,505.0
2015-01-10,Accra,Ghana,-0.2001,5.5501,[-0.7001 5.0501 0.2999 6.0501],1.275,0.826,1.864,1.388,1.127,0.632,1.831,1.289,210.0,483.0
2015-01-11,Accra,Ghana,-0.2001,5.5501,[-0.7001 5.0501 0.2999 6.0501],1.246,0.801,1.86,1.357,1.123,0.629,1.811,1.265,230.0,454.0
2015-01-12,Accra,Ghana,-0.2001,5.5501,[-0.7001 5.0501 0.2999 6.0501],1.283,0.832,1.86,1.417,1.137,0.644,1.82,1.29,208.0,482.0
2015-01-13,Accra,Ghana,-0.2001,5.5501,[-0.7001 5.0501 0.2999 6.0501],1.171,0.694,1.6,1.251,1.067,0.603,1.726,1.229,217.0,456.0
2015-01-14,Accra,Ghana,-0.2001,5.5501,[-0.7001 5.0501 0.2999 6.0501],1.14,0.691,1.6,1.241,1.04,0.598,1.674,1.207,208.0,481.0
2015-01-15,Accra,Ghana,-0.2001,5.5501,[-0.7001 5.0501 0.2999 6.0501],1.088,0.492,1.501,1.147,1.014,0.556,1.654,1.192,200.0,468.0
2015-01-16,Accra,Ghana,-0.2001,5.5501,[-0.7001 5.0501 0.2999 6.0501],1.088,0.492,1.529,1.149,0.992,0.505,1.584,1.14,227.0,474.0
2015-01-17,Accra,Ghana,-0.2001,5.5501,[-0.7001 5.0501 0.2999 6.0501],1.029,0.465,1.502,1.135,0.977,0.49,1.635,1.153,207.0,482.0
2015-01-18,Accra,Ghana,-0.2001,5.5501,[-0.7001 5.0501 0.2999 6.0501],1.008,0.435,1.529,1.103,0.97,0.479,1.589,1.129,226.0,456.0
2015-01-19,Accra,Ghana,-0.2001,5.5501,[-0.7001 5.0501 0.2999 6.0501],1.007,0.435,1.582,1.125,1.017,0.485,1.677,1.159,212.0,485.0
2015-01-20,Accra,Ghana,-0.2001,5.5501,[-0.7001 5.0501 0.2999 6.0501],1.008,0.465,1.6,1.148,0.949,0.45,1.604,1.112,226.0,450.0
2015-01-21,Accra,Ghana,-0.2001,5.5501,[-0.7001 5.0501 0.2999 6.0501],1.007,0.465,1.6,1.15,0.942,0.481,1.594,1.111,210.0,484.0
2015-01-22,Accra,Ghana,-0.2001,5.5501,[-0.7001 5.0501 0.2999 6.0501],1.029,0.465,1.725,1.143,0.936,0.433,1.613,1.088,190.0,460.0
2015-01-23,Accra,Ghana,-0.2001,5.5501,[-0.7001 5.0501 0.2999 6.0501],0.965,0.435,1.678,1.088,0.945,0.467,1.608,1.098,202.0,472.0
2015-01-24,Accra,Ghana,-0.2001,5.5501,[-0.7001 5.0501 0.2999 6.0501],0.927,0.419,1.554,1.008,0.932,0.442,1.566,1.092,184.0,468.0
2015-01-25,Accra,Ghana,-0.2001,5.5501,[-0.7001 5.0501 0.2999 6.0501],0.859,0.393,1.529,0.974,0.892,0.436,1.539,1.068,210.0,503.0
2015-01-26,Accra,Ghana,-0.2001,5.5501,[-0.7001 5.0501 0.2999 6.0501],0.83,0.351,1.431,0.956,0.876,0.405,1.516,1.048,210.0,520.0
2015-01-27,Accra,Ghana,-0.2001,5.5501,[-0.7001 5.0501 0.2999 6.0501],0.799,0.338,1.431,0.924,0.834,0.395,1.489,1.012,230.0,489.0
2015-01-28,Accra,Ghana,-0.2001,5.5501,[-0.7001 5.0501 0.2999 6.0501],0.807,0.303,1.554,0.974,0.835,0.395,1.508,1.023,209.0,516.0
2015-01-29,Accra,Ghana,-0.2001,5.5501,[-0.7001 5.0501 0.2999 6.0501],0.616,0.29,1.317,0.829,0.767,0.356,1.415,0.956,220.0,489.0
2015-01-30,Accra,Ghana,-0.2001,5.5501,[-0.7001 5.0501 0.2999 6.0501],0.583,0.284,1.331,0.838,0.734,0.328,1.357,0.92,233.0,517.0
2015-01-31,Accra,Ghana,-0.2001,5.5501,[-0.7001 5.0501 0.2999 6.0501],0.571,0.238,1.311,0.791,0.749,0.332,1.383,0.931,216.0,503.0
2015-02-01,Accra,Ghana,-0.2001,5.5501,[-0.7001 5.0501 0.2999 6.0501],0.57,0.231,1.311,0.79,0.717,0.315,1.291,0.884,242.0,511.0
2015-02-02,Accra,Ghana,-0.2001,5.5501,[-0.7001 5.0501 0.2999 6.0501],0.57,0.221,1.169,0.778,0.705,0.291,1.246,0.876,250.0,520.0
2015-02-03,Accra,Ghana,-0.2001,5.5501,[-0.7001 5.0501 0.2999 6.0501],0.57,0.221,1.092,0.752,0.68,0.277,1.159,0.828,267.0,496.0
2015-02-04,Accra,Ghana,-0.2001,5.5501,[-0.7001 5.0501 0.2999 6.0501],0.45,0.214,0.963,0.688,0.663,0.274,1.143,0.823,255.0,524.0
2015-02-05,Accra,Ghana,-0.2001,5.5501,[-0.7001 5.0501 0.2999 6.0501],0.471,0.19,1.014,0.687,0.648,0.274,1.129,0.794,262.0,490.0
2015-02-06,Accra,Ghana,-0.2001,5.5501,[-0.7001 5.0501 0.2999 6.0501],0.399,0.164,0.807,0.57,0.629,0.233,1.094,0.76,247.0,524.0
2015-02-07,Accra,Ghana,-0.2001,5.5501,[-0.7001 5.0501 0.2999 6.0501],0.391,0.161,0.799,0.532,0.594,0.224,1.066,0.739,233.0,502.0
2015-02-08,Accra,Ghana,-0.2001,5.5501,[-0.7001 5.0501 0.2999 6.0501],0.39,0.144,0.799,0.524,0.564,0.201,1.003,0.693,257.0,516.0
2015-02-09,Accra,Ghana,-0.2001,5.5501,[-0.7001 5.0501 0.2999 6.0501],0.391,0.161,0.764,0.52,0.56,0.192,0.991,0.683,249.0,511.0
2015-02-10,Accra,Ghana,-0.2001,5.5501,[-0.7001 5.0501 0.2999 6.0501],0.399,0.161,0.784,0.522,0.557,0.185,0.965,0.667,251.0,503.0
2015-02-11,Accra,Ghana,-0.2001,5.5501,[-0.7001 5.0501 0.2999 6.0501],0.399,0.161,0.764,0.511,0.539,0.165,0.96,0.656,231.0,482.0
2015-02-12,Accra,Ghana,-0.2001,5.5501,[-0.7001 5.0501 0.2999 6.0501],0.45,0.161,0.812,0.532,0.537,0.167,0.963,0.648,239.0,453.0
2015-02-13,Accra,Ghana,-0.2001,5.5501,[-0.7001 5.0501 0.2999 6.0501],0.496,0.161,0.915,0.596,0.596,0.2,1.027,0.7,218.0,482.0
2015-02-14,Accra,Ghana,-0.2001,5.5501,[-0.7001 5.0501 0.2999 6.0501],0.543,0.161,0.945,0.594,0.595,0.216,1.052,0.705,205.0,454.0
2015-02-15,Accra,Ghana,-0.2001,5.5501,[-0.7001 5.0501 0.2999 6.0501],0.583,0.162,0.945,0.619,0.567,0.19,1.03,0.679,219.0,482.0
2015-02-16,Accra,Ghana,-0.2001,5.5501,[-0.7001 5.0501 0.2999 6.0501],0.583,0.162,0.945,0.606,0.577,0.187,1.056,0.69,193.0,470.0
2015-02-17,Accra,Ghana,-0.2001,5.5501,[-0.7001 5.0501 0.2999 6.0501],0.627,0.166,0.982,0.632,0.572,0.198,1.006,0.68,193.0,475.0
2015-02-18,Accra,Ghana,-0.2001,5.5501,[-0.7001 5.0501 0.2999 6.0501],0.635,0.166,1.091,0.66,0.577,0.19,1.044,0.686,203.0,482.0
2015-02-19,Accra,Ghana,-0.2001,5.5501,[-0.7001 5.0501 0.2999 6.0501],0.671,0.179,1.049,0.657,0.564,0.191,0.995,0.656,208.0,458.0
2015-02-20,Accra,Ghana,-0.2001,5.5501,[-0.7001 5.0501 0.2999 6.0501],0.694,0.214,1.015,0.656,0.574,0.186,1.0,0.664,202.0,485.0
2015-02-21,Accra,Ghana,-0.2001,5.5501,[-0.7001 5.0501 0.2999 6.0501],0.721,0.224,1.009,0.689,0.581,0.196,1.0,0.66,212.0,449.0
2015-02-22,Accra,Ghana,-0.2001,5.5501,[-0.7001 5.0501 0.2999 6.0501],0.748,0.338,1.049,0.732,0.567,0.202,0.978,0.646,196.0,483.0
2015-02-23,Accra,Ghana,-0.2001,5.5501,[-0.7001 5.0501 0.2999 6.0501],0.789,0.418,1.151,0.784,0.611,0.219,1.037,0.68,179.0,458.0
2015-02-24,Accra,Ghana,-0.2001,5.5501,[-0.7001 5.0501 0.2999 6.0501],0.826,0.405,1.181,0.787,0.628,0.221,1.037,0.692,195.0,472.0
2015-02-25,Accra,Ghana,-0.2001,5.5501,[-0.7001 5.0501 0.2999 6.0501],0.789,0.338,1.112,0.751,0.634,0.207,1.04,0.692,187.0,471.0
2015-02-26,Accra,Ghana,-0.2001,5.5501,[-0.7001 5.0501 0.2999 6.0501],0.773,0.31,1.112,0.741,0.615,0.21,1.048,0.686,205.0,506.0
2015-02-27,Accra,Ghana,-0.2001,5.5501,[-0.7001 5.0501 0.2999 6.0501],0.747,0.308,1.059,0.73,0.618,0.213,1.054,0.681,213.0,521.0
2015-02-28,Accra,Ghana,-0.2001,5.5501,[-0.7001 5.0501 0.2999 6.0501],0.703,0.274,1.053,0.699,0.581,0.191,1.015,0.643,225.0,490.0
2015-03-01,Accra,Ghana,-0.2001,5.5501,[-0.7001 5.0501 0.2999 6.0501],0.756,0.308,1.06,0.716,0.579,0.187,0.995,0.646,205.0,520.0
2015-03-02,Accra,Ghana,-0.2001,5.5501,[-0.7001 5.0501 0.2999 6.0501],0.686,0.237,1.06,0.686,0.584,0.18,1.002,0.656,194.0,493.0
2015-03-03,Accra,Ghana,-0.2001,5.5501,[-0.7001 5.0501 0.2999 6.0501],0.686,0.237,1.06,0.697,0.585,0.177,1.025,0.659,230.0,519.0
2015-03-04,Accra,Ghana,-0.2001,5.5501,[-0.7001 5.0501 0.2999 6.0501],0.591,0.208,1.015,0.65,0.568,0.17,0.995,0.65,221.0,509.0
2015-03-05,Accra,Ghana,-0.2001,5.5501,[-0.7001 5.0501 0.2999 6.0501],0.588,0.212,1.009,0.667,0.576,0.176,0.965,0.64,221.0,516.0
2015-03-06,Accra,Ghana,-0.2001,5.5501,[-0.7001 5.0501 0.2999 6.0501],0.591,0.216,1.059,0.685,0.593,0.18,1.006,0.664,228.0,523.0
2015-03-07,Accra,Ghana,-0.2001,5.5501,[-0.7001 5.0501 0.2999 6.0501],0.587,0.202,1.056,0.673,0.584,0.168,0.991,0.646,242.0,497.0
2015-03-08,Accra,Ghana,-0.2001,5.5501,[-0.7001 5.0501 0.2999 6.0501],0.542,0.139,1.06,0.642,0.581,0.163,1.022,0.654,234.0,526.0
2015-03-09,Accra,Ghana,-0.2001,5.5501,[-0.7001 5.0501 0.2999 6.0501],0.542,0.139,1.06,0.642,0.576,0.162,1.037,0.657,234.0,491.0
2015-03-10,Accra,Ghana,-0.2001,5.5501,[-0.7001 5.0501 0.2999 6.0501],0.445,0.067,0.993,0.603,0.57,0.163,0.995,0.648,219.0,528.0
2015-03-11,Accra,Ghana,-0.2001,5.5501,[-0.7001 5.0501 0.2999 6.0501],0.468,0.067,0.971,0.606,0.574,0.152,0.994,0.652,185.0,503.0
2015-03-12,Accra,Ghana,-0.2001,5.5501,[-0.7001 5.0501 0.2999 6.0501],0.538,0.07,0.993,0.635,0.579,0.159,0.984,0.649,205.0,517.0
2015-03-13,Accra,Ghana,-0.2001,5.5501,[-0.7001 5.0501 0.2999 6.0501],0.553,0.159,1.009,0.653,0.585,0.166,1.045,0.667,205.0,512.0
2015-03-14,Accra,Ghana,-0.2001,5.5501,[-0.7001 5.0501 0.2999 6.0501],0.587,0.192,1.113,0.694,0.57,0.151,1.005,0.661,208.0,505.0
2015-03-15,Accra,Ghana,-0.2001,5.5501,[-0.7001 5.0501 0.2999 6.0501],0.591,0.224,1.134,0.732,0.6,0.161,1.045,0.686,196.0,483.0
2015-03-16,Accra,Ghana,-0.2001,5.5501,[-0.7001 5.0501 0.2999 6.0501],0.562,0.159,1.071,0.695,0.557,0.133,0.991,0.658,215.0,452.0
2015-03-17,Accra,Ghana,-0.2001,5.5501,[-0.7001 5.0501 0.2999 6.0501],0.601,0.216,1.063,0.715,0.587,0.156,1.02,0.675,202.0,480.0
2015-03-18,Accra,Ghana,-0.2001,5.5501,[-0.7001 5.0501 0.2999 6.0501],0.601,0.224,1.009,0.701,0.596,0.146,1.028,0.671,166.0,451.0
2015-03-19,Accra,Ghana,-0.2001,5.5501,[-0.7001 5.0501 0.2999 6.0501],0.631,0.205,1.134,0.753,0.622,0.152,1.088,0.687,187.0,476.0
2015-03-20,Accra,Ghana,-0.2001,5.5501,[-0.7001 5.0501 0.2999 6.0501],0.601,0.206,1.126,0.702,0.585,0.15,1.082,0.686,179.0,464.0
2015-03-21,Accra,Ghana,-0.2001,5.5501,[-0.7001 5.0501 0.2999 6.0501],0.54,0.159,1.009,0.669,0.553,0.123,1.034,0.651,173.0,473.0
2015-03-22,Accra,Ghana,-0.2001,5.5501,[-0.7001 5.0501 0.2999 6.0501],0.601,0.206,1.147,0.713,0.592,0.128,1.056,0.667,184.0,485.0
2015-03-23,Accra,Ghana,-0.2001,5.5501,[-0.7001 5.0501 0.2999 6.0501],0.601,0.206,1.147,0.711,0.582,0.135,1.05,0.673,182.0,461.0
2015-03-24,Accra,Ghana,-0.2001,5.5501,[-0.7001 5.0501 0.2999 6.0501],0.601,0.206,1.147,0.711,0.585,0.146,1.018,0.672,182.0,489.0
2015-03-25,Accra,Ghana,-0.2001,5.5501,[-0.7001 5.0501 0.2999 6.0501],0.599,0.206,1.077,0.705,0.576,0.133,1.025,0.674,185.0,455.0
2015-03-26,Accra,Ghana,-0.2001,5.5501,[-0.7001 5.0501 0.2999 6.0501],0.599,0.206,1.077,0.705,0.574,0.139,1.005,0.664,185.0,490.0
2015-03-27,Accra,Ghana,-0.2001,5.5501,[-0.7001 5.0501 0.2999 6.0501],0.534,0.151,0.996,0.665,0.576,0.137,1.02,0.682,166.0,467.0
2015-03-28,Accra,Ghana,-0.2001,5.5501,[-0.7001 5.0501 0.2999 6.0501],0.45,0.151,0.95,0.634,0.57,0.145,1.031,0.67,182.0,481.0
2015-03-29,Accra,Ghana,-0.2001,5.5501,[-0.7001 5.0501 0.2999 6.0501],0.434,0.126,0.92,0.578,0.598,0.151,1.045,0.69,180.0,481.0
2015-03-30,Accra,Ghana,-0.2001,5.5501,[-0.7001 5.0501 0.2999 6.0501],0.456,0.1,0.95,0.586,0.578,0.126,1.041,0.681,208.0,511.0
2015-03-31,Accra,Ghana,-0.2001,5.5501,[-0.7001 5.0501 0.2999 6.0501],0.493,0.126,0.954,0.619,0.61,0.169,1.056,0.71,211.0,525.0
2015-04-01,Accra,Ghana,-0.2001,5.5501,[-0.7001 5.0501 0.2999 6.0501],0.492,0.125,0.954,0.638,0.594,0.142,1.037,0.684,229.0,495.0
2015-04-02,Accra,Ghana,-0.2001,5.5501,[-0.7001 5.0501 0.2999 6.0501],0.492,0.125,0.954,0.638,0.584,0.125,1.054,0.682,229.0,525.0
2015-04-03,Accra,Ghana,-0.2001,5.5501,[-0.7001 5.0501 0.2999 6.0501],0.4,0.137,0.777,0.549,0.558,0.122,1.0,0.656,206.0,498.0
2015-04-04,Accra,Ghana,-0.2001,5.5501,[-0.7001 5.0501 0.2999 6.0501],0.446,0.125,0.786,0.565,0.575,0.128,1.013,0.668,219.0,523.0
2015-04-05,Accra,Ghana,-0.2001,5.5501,[-0.7001 5.0501 0.2999 6.0501],0.45,0.126,0.786,0.567,0.601,0.121,1.044,0.69,211.0,511.0
2015-04-06,Accra,Ghana,-0.2001,5.5501,[-0.7001 5.0501 0.2999 6.0501],0.45,0.137,0.777,0.552,0.59,0.11,1.027,0.669,214.0,516.0
2015-04-07,Accra,Ghana,-0.2001,5.5501,[-0.7001 5.0501 0.2999 6.0501],0.45,0.137,0.775,0.547,0.592,0.113,1.023,0.664,223.0,526.0
2015-04-08,Accra,Ghana,-0.2001,5.5501,[-0.7001 5.0501 0.2999 6.0501],0.492,0.151,0.793,0.555,0.587,0.165,1.046,0.677,243.0,500.0
2015-04-09,Accra,Ghana,-0.2001,5.5501,[-0.7001 5.0501 0.2999 6.0501],0.493,0.151,0.8,0.558,0.595,0.164,1.035,0.689,240.0,526.0
2015-04-10,Accra,Ghana,-0.2001,5.5501,[-0.7001 5.0501 0.2999 6.0501],0.479,0.14,0.801,0.553,0.583,0.161,1.06,0.686,253.0,491.0
2015-04-11,Accra,Ghana,-0.2001,5.5501,[-0.7001 5.0501 0.2999 6.0501],0.493,0.17,0.804,0.572,0.586,0.159,1.03,0.666,238.0,525.0
2015-04-12,Accra,Ghana,-0.2001,5.5501,[-0.7001 5.0501 0.2999 6.0501],0.492,0.151,0.8,0.556,0.588,0.164,1.02,0.668,221.0,501.0
2015-04-13,Accra,Ghana,-0.2001,5.5501,[-0.7001 5.0501 0.2999 6.0501],0.478,0.162,0.8,0.558,0.568,0.149,1.016,0.657,238.0,515.0
2015-04-14,Accra,Ghana,-0.2001,5.5501,[-0.7001 5.0501 0.2999 6.0501],0.465,0.192,0.786,0.559,0.562,0.157,1.013,0.657,229.0,515.0
2015-04-15,Accra,Ghana,-0.2001,5.5501,[-0.7001 5.0501 0.2999 6.0501],0.478,0.197,0.8,0.572,0.572,0.171,1.02,0.662,230.0,511.0
2015-04-16,Accra,Ghana,-0.2001,5.5501,[-0.7001 5.0501 0.2999 6.0501],0.474,0.199,0.8,0.551,0.584,0.217,1.02,0.668,212.0,489.0
2015-04-17,Accra,Ghana,-0.2001,5.5501,[-0.7001 5.0501 0.2999 6.0501],0.478,0.199,0.8,0.553,0.582,0.216,1.014,0.668,221.0,459.0
2015-04-18,Accra,Ghana,-0.2001,5.5501,[-0.7001 5.0501 0.2999 6.0501],0.542,0.237,0.896,0.628,0.625,0.246,1.051,0.694,205.0,488.0
2015-04-19,Accra,Ghana,-0.2001,5.5501,[-0.7001 5.0501 0.2999 6.0501],0.496,0.237,0.896,0.607,0.586,0.213,1.039,0.67,173.0,461.0
2015-04-20,Accra,Ghana,-0.2001,5.5501,[-0.7001 5.0501 0.2999 6.0501],0.509,0.237,0.896,0.625,0.562,0.18,1.032,0.656,207.0,486.0
2015-04-21,Accra,Ghana,-0.2001,5.5501,[-0.7001 5.0501 0.2999 6.0501],0.491,0.246,0.896,0.616,0.588,0.221,1.06,0.685,193.0,468.0
2015-04-22,Accra,Ghana,-0.2001,5.5501,[-0.7001 5.0501 0.2999 6.0501],0.539,0.246,0.932,0.651,0.589,0.202,1.07,0.682,210.0,473.0
2015-04-23,Accra,Ghana,-0.2001,5.5501,[-0.7001 5.0501 0.2999 6.0501],0.553,0.246,1.0,0.676,0.597,0.181,1.066,0.672,217.0,481.0
2015-04-24,Accra,Ghana,-0.2001,5.5501,[-0.7001 5.0501 0.2999 6.0501],0.512,0.239,0.955,0.639,0.569,0.172,1.044,0.645,237.0,457.0
2015-04-25,Accra,Ghana,-0.2001,5.5501,[-0.7001 5.0501 0.2999 6.0501],0.553,0.267,0.968,0.654,0.602,0.182,1.071,0.66,229.0,486.0
2015-04-26,Accra,Ghana,-0.2001,5.5501,[-0.7001 5.0501 0.2999 6.0501],0.517,0.197,0.865,0.602,0.608,0.185,1.058,0.662,240.0,451.0
2015-04-27,Accra,Ghana,-0.2001,5.5501,[-0.7001 5.0501 0.2999 6.0501],0.553,0.213,0.968,0.63,0.607,0.19,1.077,0.666,223.0,484.0
2015-04-28,Accra,Ghana,-0.2001,5.5501,[-0.7001 5.0501 0.2999 6.0501],0.512,0.122,0.962,0.602,0.603,0.156,1.099,0.669,196.0,459.0
2015-04-29,Accra,Ghana,-0.2001,5.5501,[-0.7001 5.0501 0.2999 6.0501],0.512,0.087,0.962,0.595,0.591,0.137,1.089,0.656,184.0,474.0
2015-04-30,Accra,Ghana,-0.2001,5.5501,[-0.7001 5.0501 0.2999 6.0501],0.461,0.025,0.827,0.551,0.563,0.105,1.042,0.636,170.0,472.0
2015-05-01,Accra,Ghana,-0.2001,5.5501,[-0.7001 5.0501 0.2999 6.0501],0.512,0.037,0.968,0.591,0.587,0.111,1.076,0.656,194.0,505.0
2015-05-02,Accra,Ghana,-0.2001,5.5501,[-0.7001 5.0501 0.2999 6.0501],0.505,0.025,0.968,0.576,0.594,0.11,1.089,0.648,205.0,522.0
2015-05-03,Accra,Ghana,-0.2001,5.5501,[-0.7001 5.0501 0.2999 6.0501],0.517,0.037,1.042,0.665,0.564,0.084,1.065,0.646,223.0,492.0
2015-05-04,Accra,Ghana,-0.2001,5.5501,[-0.7001 5.0501 0.2999 6.0501],0.517,0.037,1.042,0.665,0.562,0.077,1.065,0.64,223.0,522.0
2015-05-05,Accra,Ghana,-0.2001,5.5501,[-0.7001 5.0501 0.2999 6.0501],0.441,-0.024,0.868,0.63,0.548,0.08,0.998,0.637,207.0,494.0
2015-05-06,Accra,Ghana,-0.2001,5.5501,[-0.7001 5.0501 0.2999 6.0501],0.441,-0.037,0.868,0.637,0.545,0.079,0.999,0.637,226.0,526.0
2015-05-07,Accra,Ghana,-0.2001,5.5501,[-0.7001 5.0501 0.2999 6.0501],0.373,-0.037,0.821,0.581,0.525,0.08,1.004,0.624,213.0,509.0
2015-05-08,Accra,Ghana,-0.2001,5.5501,[-0.7001 5.0501 0.2999 6.0501],0.352,-0.045,0.797,0.56,0.525,0.087,1.005,0.628,196.0,516.0
2015-05-09,Accra,Ghana,-0.2001,5.5501,[-0.7001 5.0501 0.2999 6.0501],0.359,-0.037,0.797,0.573,0.508,0.069,0.984,0.623,199.0,523.0
2015-05-10,Accra,Ghana,-0.2001,5.5501,[-0.7001 5.0501 0.2999 6.0501],0.259,-0.045,0.797,0.529,0.467,0.079,0.977,0.594,207.0,500.0
2015-05-11,Accra,Ghana,-0.2001,5.5501,[-0.7001 5.0501 0.2999 6.0501],0.293,-0.037,0.868,0.569,0.479,0.057,1.015,0.612,202.0,527.0
2015-05-12,Accra,Ghana,-0.2001,5.5501,[-0.7001 5.0501 0.2999 6.0501],0.293,-0.037,0.868,0.569,0.48,0.05,1.001,0.608,202.0,493.0
2015-05-13,Accra,Ghana,-0.2001,5.5501,[-0.7001 5.0501 0.2999 6.0501],0.363,-0.024,0.868,0.583,0.494,0.025,0.982,0.601,195.0,527.0
2015-05-14,Accra,Ghana,-0.2001,5.5501,[-0.7001 5.0501 0.2999 6.0501],0.385,-0.016,0.868,0.58,0.51,0.061,1.002,0.622,200.0,502.0
2015-05-15,Accra,Ghana,-0.2001,5.5501,[-0.7001 5.0501 0.2999 6.0501],0.392,-0.016,0.868,0.593,0.533,0.084,1.052,0.653,220.0,518.0
2015-05-16,Accra,Ghana,-0.2001,5.5501,[-0.7001 5.0501 0.2999 6.0501],0.373,-0.016,0.83,0.568,0.486,-0.003,0.998,0.607,197.0,514.0
2015-05-17,Accra,Ghana,-0.2001,5.5501,[-0.7001 5.0501 0.2999 6.0501],0.381,0.042,0.83,0.576,0.482,0.014,0.962,0.602,196.0,509.0
2015-05-18,Accra,Ghana,-0.2001,5.5501,[-0.7001 5.0501 0.2999 6.0501],0.37,-0.016,0.797,0.476,0.489,0.017,0.97,0.593,178.0,487.0
2015-05-19,Accra,Ghana,-0.2001,5.5501,[-0.7001 5.0501 0.2999 6.0501],0.347,-0.016,0.797,0.475,0.499,0.057,0.987,0.609,189.0,456.0
2015-05-20,Accra,Ghana,-0.2001,5.5501,[-0.7001 5.0501 0.2999 6.0501],0.385,0.056,0.853,0.452,0.52,0.088,1.059,0.631,171.0,485.0
2015-05-21,Accra,Ghana,-0.2001,5.5501,[-0.7001 5.0501 0.2999 6.0501],0.347,0.066,0.83,0.418,0.499,0.059,1.016,0.601,138.0,457.0
2015-05-22,Accra,Ghana,-0.2001,5.5501,[-0.7001 5.0501 0.2999 6.0501],0.436,0.066,0.884,0.456,0.511,0.047,1.048,0.61,125.0,487.0
2015-05-23,Accra,Ghana,-0.2001,5.5501,[-0.7001 5.0501 0.2999 6.0501],0.436,0.108,0.83,0.456,0.491,0.036,1.038,0.602,134.0,471.0
2015-05-24,Accra,Ghana,-0.2001,5.5501,[-0.7001 5.0501 0.2999 6.0501],0.436,0.123,0.853,0.458,0.492,0.044,1.025,0.602,111.0,477.0
2015-05-25,Accra,Ghana,-0.2001,5.5501,[-0.7001 5.0501 0.2999 6.0501],0.484,0.143,0.884,0.558,0.495,0.022,1.071,0.602,101.0,482.0
2015-05-26,Accra,Ghana,-0.2001,5.5501,[-0.7001 5.0501 0.2999 6.0501],0.484,0.143,0.879,0.552,0.479,0.068,0.928,0.572,95.0,460.0
2015-05-27,Accra,Ghana,-0.2001,5.5501,[-0.7001 5.0501 0.2999 6.0501],0.484,0.143,0.879,0.551,0.465,0.072,0.924,0.571,96.0,488.0
2015-05-28,Accra,Ghana,-0.2001,5.5501,[-0.7001 5.0501 0.2999 6.0501],0.484,0.143,0.879,0.551,0.441,0.073,0.922,0.555,96.0,455.0
2015-05-29,Accra,Ghana,-0.2001,5.5501,[-0.7001 5.0501 0.2999 6.0501],0.459,0.152,0.879,0.547,0.389,0.071,0.871,0.517,84.0,489.0
2015-05-30,Accra,Ghana,-0.2001,5.5501,[-0.7001 5.0501 0.2999 6.0501],0.413,0.192,0.879,0.538,0.342,0.047,0.859,0.495,56.0,462.0
2015-05-31,Accra,Ghana,-0.2001,5.5501,[-0.7001 5.0501 0.2999 6.0501],0.413,0.176,0.853,0.513,0.37,0.078,0.874,0.51,63.0,478.0
2015-06-01,Accra,Ghana,-0.2001,5.5501,[-0.7001 5.0501 0.2999 6.0501],0.413,0.214,0.879,0.539,0.355,0.081,0.879,0.513,48.0,474.0
2015-06-02,Accra,Ghana,-0.2001,5.5501,[-0.7001 5.0501 0.2999 6.0501],0.413,0.214,0.879,0.539,0.377,0.068,0.875,0.513,48.0,506.0
2015-06-03,Accra,Ghana,-0.2001,5.5501,[-0.7001 5.0501 0.2999 6.0501],0.413,0.245,0.751,0.564,0.36,0.067,0.855,0.509,37.0,523.0
2015-06-04,Accra,Ghana,-0.2001,5.5501,[-0.7001 5.0501 0.2999 6.0501],0.331,0.152,0.643,0.469,0.327,0.036,0.802,0.474,42.0,493.0
2015-06-05,Accra,Ghana,-0.2001,5.5501,[-0.7001 5.0501 0.2999 6.0501],0.413,0.069,0.649,0.484,0.323,0.041,0.822,0.48,41.0,522.0
2015-06-06,Accra,Ghana,-0.2001,5.5501,[-0.7001 5.0501 0.2999 6.0501],0.313,0.031,0.643,0.404,0.311,0.033,0.803,0.468,47.0,495.0
2015-06-07,Accra,Ghana,-0.2001,5.5501,[-0.7001 5.0501 0.2999 6.0501],0.28,0.031,0.592,0.323,0.307,0.035,0.773,0.443,33.0,527.0
2015-06-08,Accra,Ghana,-0.2001,5.5501,[-0.7001 5.0501 0.2999 6.0501],0.28,0.031,0.592,0.316,0.341,0.042,0.858,0.482,35.0,514.0
2015-06-09,Accra,Ghana,-0.2001,5.5501,[-0.7001 5.0501 0.2999 6.0501],0.251,-0.087,0.592,0.308,0.354,0.043,0.843,0.488,52.0,521.0
2015-06-10,Accra,Ghana,-0.2001,5.5501,[-0.7001 5.0501 0.2999 6.0501],0.251,-0.117,0.592,0.295,0.365,0.01,0.856,0.496,74.0,526.0
2015-06-11,Accra,Ghana,-0.2001,5.5501,[-0.7001 5.0501 0.2999 6.0501],0.23,-0.131,0.592,0.274,0.388,0.03,0.833,0.485,75.0,500.0
2015-06-12,Accra,Ghana,-0.2001,5.5501,[-0.7001 5.0501 0.2999 6.0501],0.23,-0.131,0.592,0.274,0.388,0.005,0.826,0.482,77.0,525.0
2015-06-13,Accra,Ghana,-0.2001,5.5501,[-0.7001 5.0501 0.2999 6.0501],0.23,-0.087,0.592,0.273,0.407,0.024,0.881,0.494,81.0,488.0
2015-06-14,Accra,Ghana,-0.2001,5.5501,[-0.7001 5.0501 0.2999 6.0501],0.167,-0.117,0.592,0.268,0.368,-0.022,0.871,0.445,80.0,522.0
2015-06-15,Accra,Ghana,-0.2001,5.5501,[-0.7001 5.0501 0.2999 6.0501],0.111,-0.245,0.542,0.192,0.357,-0.052,0.878,0.432,77.0,495.0
2015-06-16,Accra,Ghana,-0.2001,5.5501,[-0.7001 5.0501 0.2999 6.0501],0.099,-0.293,0.581,0.159,0.392,-0.033,0.861,0.444,107.0,509.0
2015-06-17,Accra,Ghana,-0.2001,5.5501,[-0.7001 5.0501 0.2999 6.0501],0.167,-0.241,0.56,0.194,0.373,-0.052,0.836,0.421,126.0,507.0
2015-06-18,Accra,Ghana,-0.2001,5.5501,[-0.7001 5.0501 0.2999 6.0501],0.213,-0.241,0.592,0.234,0.415,-0.021,0.863,0.465,144.0,503.0
2015-06-19,Accra,Ghana,-0.2001,5.5501,[-0.7001 5.0501 0.2999 6.0501],0.258,-0.241,0.593,0.254,0.428,0.006,0.881,0.471,139.0,481.0
2015-06-20,Accra,Ghana,-0.2001,5.5501,[-0.7001 5.0501 0.2999 6.0501],0.281,-0.131,0.652,0.294,0.433,0.014,0.857,0.473,151.0,450.0
2015-06-21,Accra,Ghana,-0.2001,5.5501,[-0.7001 5.0501 0.2999 6.0501],0.281,-0.156,0.685,0.304,0.433,-0.002,0.86,0.47,145.0,479.0
2015-06-22,Accra,Ghana,-0.2001,5.5501,[-0.7001 5.0501 0.2999 6.0501],0.281,-0.133,0.685,0.309,0.448,0.002,0.887,0.482,141.0,449.0
2015-06-23,Accra,Ghana,-0.2001,5.5501,[-0.7001 5.0501 0.2999 6.0501],0.281,-0.131,0.698,0.311,0.42,0.01,0.885,0.471,139.0,476.0
2015-06-24,Accra,Ghana,-0.2001,5.5501,[-0.7001 5.0501 0.2999 6.0501],0.346,-0.063,0.593,0.32,0.421,0.007,0.829,0.462,136.0,461.0
2015-06-25,Accra,Ghana,-0.2001,5.5501,[-0.7001 5.0501 0.2999 6.0501],0.356,-0.045,0.601,0.34,0.402,0.004,0.785,0.442,135.0,468.0
2015-06-26,Accra,Ghana,-0.2001,5.5501,[-0.7001 5.0501 0.2999 6.0501],0.396,-0.041,0.639,0.355,0.406,-0.023,0.79,0.444,133.0,476.0
2015-06-27,Accra,Ghana,-0.2001,5.5501,[-0.7001 5.0501 0.2999 6.0501],0.356,-0.041,0.601,0.348,0.367,-0.003,0.773,0.432,134.0,454.0
2015-06-28,Accra,Ghana,-0.2001,5.5501,[-0.7001 5.0501 0.2999 6.0501],0.356,-0.044,0.665,0.353,0.37,-0.018,0.78,0.427,133.0,481.0
2015-06-29,Accra,Ghana,-0.2001,5.5501,[-0.7001 5.0501 0.2999 6.0501],0.356,-0.044,0.665,0.353,0.389,0.017,0.785,0.444,133.0,447.0
2015-06-30,Accra,Ghana,-0.2001,5.5501,[-0.7001 5.0501 0.2999 6.0501],0.432,0.023,0.677,0.414,0.392,0.053,0.763,0.455,128.0,482.0
2015-07-01,Accra,Ghana,-0.2001,5.5501,[-0.7001 5.0501 0.2999 6.0501],0.36,0.053,0.601,0.409,0.357,0.039,0.762,0.451,106.0,455.0
2015-07-02,Accra,Ghana,-0.2001,5.5501,[-0.7001 5.0501 0.2999 6.0501],0.302,0.023,0.601,0.386,0.329,0.028,0.763,0.442,114.0,468.0